GFA1550 OBBI-OMRK

Flight info

Callsign GFA1550
Flight time 0h 52m
Altitude 25000
Route BHR N697 SODAK P559 KIVUS L305 EMOTA R784 TOVIV DCT ALSIL
Aircraft A320/M-SDE3FGHIRWY/LB1

Departure

Time 2026-05-09 06:13
Airport Bahrain International Airport (OBBI)

Arrival

Time 2026-05-09 07:05
Airport Ras Al Khaimah International Airport (OMRK)
Time Latitude Longitude Altitude Speed Heading
2026-05-09 05:20 26.27469 50.63697 18 ft 0 kts 122°
2026-05-09 06:02 26.27478 50.63677 18 ft 4 kts 99°
2026-05-09 06:02 26.27479 50.63648 18 ft 4 kts 97°
2026-05-09 06:02 26.27483 50.63626 18 ft 4 kts 145°
2026-05-09 06:03 26.27504 50.63623 18 ft 3 kts 185°
2026-05-09 06:03 26.27490 50.63621 20 ft 4 kts 191°
2026-05-09 06:03 26.27470 50.63608 19 ft 2 kts 213°
2026-05-09 06:03 26.27449 50.63594 18 ft 4 kts 212°
2026-05-09 06:04 26.27426 50.63578 20 ft 4 kts 213°
2026-05-09 06:04 26.27419 50.63572 19 ft 1 kts 213°
2026-05-09 06:08 26.27418 50.63572 18 ft 1 kts 213°
2026-05-09 06:08 26.27395 50.63556 18 ft 6 kts 212°
2026-05-09 06:08 26.27354 50.63526 18 ft 8 kts 213°
2026-05-09 06:09 26.27298 50.63485 17 ft 11 kts 214°
2026-05-09 06:09 26.27220 50.63458 16 ft 13 kts 172°
2026-05-09 06:09 26.27170 50.63470 16 ft 2 kts 168°
2026-05-09 06:09 26.27164 50.63472 15 ft 0 kts 169°
2026-05-09 06:11 26.27113 50.63484 17 ft 15 kts 168°
2026-05-09 06:11 26.27037 50.63493 15 ft 7 kts 221°
2026-05-09 06:11 26.27035 50.63447 15 ft 5 kts 302°
2026-05-09 06:12 26.27036 50.63445 15 ft 0 kts 302°
2026-05-09 06:12 26.27038 50.63442 15 ft 10 kts 302°
2026-05-09 06:12 26.27224 50.63119 17 ft 85 kts 303°
2026-05-09 06:12 26.27649 50.62384 17 ft 139 kts 302°
2026-05-09 06:13 26.28162 50.61419 572 ft 136 kts 303°
2026-05-09 06:13 26.28610 50.60499 1220 ft 134 kts 313°
2026-05-09 06:13 26.29368 50.59959 1791 ft 134 kts 341°
2026-05-09 06:13 26.30348 50.59703 2064 ft 155 kts 348°
2026-05-09 06:14 26.31487 50.59564 2239 ft 177 kts
2026-05-09 06:14 26.32663 50.60236 2349 ft 210 kts 38°
2026-05-09 06:14 26.33770 50.61457 2527 ft 236 kts 39°
2026-05-09 06:14 26.35009 50.62791 2900 ft 256 kts 38°
2026-05-09 06:15 26.36309 50.64191 3577 ft 263 kts 39°
2026-05-09 06:15 26.37637 50.65627 4296 ft 268 kts 39°
2026-05-09 06:15 26.38984 50.67091 5040 ft 272 kts 39°
2026-05-09 06:15 26.40350 50.68576 5766 ft 277 kts 39°
2026-05-09 06:16 26.41744 50.70085 6513 ft 281 kts 39°
2026-05-09 06:16 26.43154 50.71612 7243 ft 285 kts 39°
2026-05-09 06:16 26.44586 50.73166 7941 ft 290 kts 40°
2026-05-09 06:16 26.46042 50.74752 8641 ft 295 kts 40°
2026-05-09 06:17 26.47524 50.76364 9356 ft 300 kts 40°
2026-05-09 06:17 26.49032 50.78004 10037 ft 305 kts 41°
2026-05-09 06:17 26.50595 50.79698 10362 ft 324 kts 41°
2026-05-09 06:17 26.52274 50.81511 10520 ft 347 kts 41°
2026-05-09 06:18 26.54064 50.83447 10675 ft 368 kts 41°
2026-05-09 06:18 26.55901 50.85441 11144 ft 377 kts 42°
2026-05-09 06:18 26.57793 50.87503 11724 ft 383 kts 42°
2026-05-09 06:18 26.59732 50.89624 12339 ft 387 kts 43°
2026-05-09 06:19 26.61644 50.91715 12941 ft 392 kts 43°
2026-05-09 06:19 26.63607 50.93859 13538 ft 396 kts 43°
2026-05-09 06:19 26.65577 50.96010 14090 ft 401 kts 43°
2026-05-09 06:19 26.67582 50.98200 14623 ft 405 kts 43°
2026-05-09 06:20 26.69607 51.00415 15162 ft 409 kts 43°
2026-05-09 06:20 26.71651 51.02649 15703 ft 412 kts 44°
2026-05-09 06:20 26.73521 51.05098 16216 ft 417 kts 56°
2026-05-09 06:20 26.74852 51.07984 16745 ft 420 kts 71°
2026-05-09 06:21 26.75548 51.11154 17280 ft 421 kts 85°
2026-05-09 06:21 26.75564 51.14416 17816 ft 420 kts 99°
2026-05-09 06:21 26.74914 51.17586 18340 ft 418 kts 112°
2026-05-09 06:21 26.73924 51.20657 18828 ft 421 kts 113°
2026-05-09 06:22 26.72929 51.23746 19302 ft 423 kts 113°
2026-05-09 06:22 26.71931 51.26856 19778 ft 426 kts 114°
2026-05-09 06:22 26.70929 51.29985 20240 ft 428 kts 114°
2026-05-09 06:22 26.69921 51.33130 20688 ft 431 kts 114°
2026-05-09 06:23 26.68917 51.36254 21123 ft 434 kts 114°
2026-05-09 06:23 26.67893 51.39432 21557 ft 436 kts 114°
2026-05-09 06:23 26.66858 51.42628 21971 ft 439 kts 114°
2026-05-09 06:23 26.65815 51.45843 22359 ft 441 kts 115°
2026-05-09 06:24 26.64769 51.49084 22777 ft 444 kts 115°
2026-05-09 06:24 26.63721 51.52342 23161 ft 446 kts 115°
2026-05-09 06:24 26.62671 51.55614 23526 ft 449 kts 115°
2026-05-09 06:24 26.61616 51.58902 23822 ft 451 kts 115°
2026-05-09 06:25 26.60557 51.62210 24113 ft 454 kts 115°
2026-05-09 06:25 26.59487 51.65539 24379 ft 456 kts 115°
2026-05-09 06:25 26.58407 51.68890 24651 ft 459 kts 115°
2026-05-09 06:25 26.57325 51.72242 24866 ft 461 kts 115°
2026-05-09 06:26 26.56234 51.75612 24920 ft 466 kts 115°
2026-05-09 06:26 26.55118 51.79044 24926 ft 471 kts 115°
2026-05-09 06:26 26.53994 51.82497 24926 ft 473 kts 115°
2026-05-09 06:26 26.52872 51.85953 24922 ft 473 kts 115°
2026-05-09 06:27 26.51766 51.89366 24921 ft 473 kts 115°
2026-05-09 06:27 26.50632 51.92823 24922 ft 473 kts 115°
2026-05-09 06:27 26.49490 51.96266 24919 ft 473 kts 116°
2026-05-09 06:27 26.48343 51.99708 24919 ft 473 kts 116°
2026-05-09 06:28 26.47207 52.03098 24915 ft 473 kts 116°
2026-05-09 06:28 26.46054 52.06536 24916 ft 473 kts 116°
2026-05-09 06:28 26.44900 52.09982 24911 ft 473 kts 116°
2026-05-09 06:28 26.43749 52.13421 24907 ft 473 kts 116°
2026-05-09 06:29 26.42597 52.16868 24903 ft 473 kts 116°
2026-05-09 06:29 26.41443 52.20313 24901 ft 473 kts 116°
2026-05-09 06:29 26.40294 52.23746 24903 ft 473 kts 115°
2026-05-09 06:29 26.39142 52.27190 24899 ft 473 kts 115°
2026-05-09 06:30 26.37993 52.30630 24897 ft 473 kts 115°
2026-05-09 06:30 26.36843 52.34065 24897 ft 473 kts 116°
2026-05-09 06:30 26.35687 52.37501 24893 ft 473 kts 116°
2026-05-09 06:30 26.34499 52.40915 24893 ft 472 kts 117°
2026-05-09 06:31 26.33243 52.44289 24891 ft 471 kts 118°
2026-05-09 06:31 26.31943 52.47633 24894 ft 470 kts 119°
2026-05-09 06:31 26.30622 52.50966 24893 ft 470 kts 119°
2026-05-09 06:31 26.29304 52.54290 24893 ft 470 kts 119°
2026-05-09 06:32 26.27990 52.57629 24892 ft 470 kts 118°
2026-05-09 06:32 26.26695 52.60966 24892 ft 470 kts 118°
2026-05-09 06:32 26.25407 52.64311 24893 ft 470 kts 118°
2026-05-09 06:33 26.22847 52.70998 24891 ft 469 kts 118°
2026-05-09 06:33 26.21574 52.74341 24890 ft 469 kts 118°
2026-05-09 06:33 26.20301 52.77688 24885 ft 469 kts 118°
2026-05-09 06:34 26.17753 52.84364 24883 ft 468 kts 118°
2026-05-09 06:34 26.16474 52.87698 24881 ft 468 kts 118°
2026-05-09 06:34 26.15193 52.91036 24878 ft 468 kts 118°
2026-05-09 06:34 26.13913 52.94365 24874 ft 468 kts 118°
2026-05-09 06:35 26.12630 52.97690 24878 ft 468 kts 118°
2026-05-09 06:35 26.11345 53.01014 24876 ft 468 kts 118°
2026-05-09 06:35 26.10064 53.04336 24871 ft 468 kts 118°
2026-05-09 06:35 26.08802 53.07681 24869 ft 468 kts 117°
2026-05-09 06:36 26.07569 53.11032 24871 ft 468 kts 117°
2026-05-09 06:36 26.06350 53.14389 24871 ft 468 kts 116°
2026-05-09 06:36 26.05134 53.17749 24863 ft 468 kts 116°
2026-05-09 06:36 26.03913 53.21105 24860 ft 468 kts 117°
2026-05-09 06:37 26.02688 53.24452 24858 ft 468 kts 117°
2026-05-09 06:37 26.01454 53.27803 24856 ft 468 kts 117°
2026-05-09 06:37 26.00217 53.31144 24856 ft 468 kts 117°
2026-05-09 06:37 25.98975 53.34495 24859 ft 468 kts 117°
2026-05-09 06:38 25.97747 53.37800 24860 ft 469 kts 117°
2026-05-09 06:38 25.96505 53.41145 24855 ft 469 kts 117°
2026-05-09 06:38 25.95264 53.44493 24853 ft 469 kts 117°
2026-05-09 06:38 25.94023 53.47845 24854 ft 469 kts 117°
2026-05-09 06:39 25.92787 53.51201 24857 ft 469 kts 116°
2026-05-09 06:39 25.91594 53.54572 24851 ft 470 kts 115°
2026-05-09 06:39 25.90434 53.57961 24851 ft 470 kts 115°
2026-05-09 06:39 25.89288 53.61361 24848 ft 470 kts 115°
2026-05-09 06:40 25.88143 53.64763 24856 ft 470 kts 115°
2026-05-09 06:40 25.86992 53.68154 24852 ft 470 kts 115°
2026-05-09 06:40 25.85823 53.71557 24849 ft 470 kts 115°
2026-05-09 06:40 25.84647 53.74947 24849 ft 470 kts 115°
2026-05-09 06:41 25.83464 53.78330 24853 ft 471 kts 116°
2026-05-09 06:41 25.82278 53.81722 24852 ft 471 kts 115°
2026-05-09 06:41 25.81099 53.85108 24854 ft 471 kts 115°
2026-05-09 06:41 25.79922 53.88498 24852 ft 471 kts 115°
2026-05-09 06:42 25.78744 53.91885 24851 ft 471 kts 115°
2026-05-09 06:42 25.77628 53.95301 24851 ft 473 kts 110°
2026-05-09 06:42 25.76974 53.98900 24848 ft 479 kts 99°
2026-05-09 06:42 25.76905 54.02606 24846 ft 484 kts 89°
2026-05-09 06:43 25.77433 54.06302 24848 ft 488 kts 78°
2026-05-09 06:43 25.78484 54.09888 24844 ft 490 kts 73°
2026-05-09 06:43 25.79628 54.13458 24840 ft 490 kts 73°
2026-05-09 06:43 25.80759 54.17017 24836 ft 490 kts 73°
2026-05-09 06:44 25.81888 54.20584 24835 ft 490 kts 73°
2026-05-09 06:44 25.83015 54.24148 24832 ft 490 kts 73°
2026-05-09 06:44 25.84142 54.27719 24836 ft 490 kts 73°
2026-05-09 06:44 25.85272 54.31288 24836 ft 490 kts 73°
2026-05-09 06:45 25.86300 54.34841 24830 ft 488 kts 79°
2026-05-09 06:45 25.86847 54.38533 24833 ft 483 kts 89°
2026-05-09 06:45 25.86849 54.42242 24833 ft 478 kts 98°
2026-05-09 06:45 25.86326 54.45866 24833 ft 473 kts 108°
2026-05-09 06:46 25.85349 54.49329 24832 ft 470 kts 113°
2026-05-09 06:46 25.84268 54.52757 24833 ft 470 kts 113°
2026-05-09 06:46 25.83188 54.56181 24832 ft 470 kts 113°
2026-05-09 06:46 25.82108 54.59604 24831 ft 470 kts 113°
2026-05-09 06:47 25.81028 54.63022 24830 ft 470 kts 113°
2026-05-09 06:47 25.79946 54.66444 24831 ft 470 kts 113°
2026-05-09 06:47 25.78861 54.69870 24826 ft 470 kts 113°
2026-05-09 06:47 25.77776 54.73287 24727 ft 471 kts 113°
2026-05-09 06:48 25.76690 54.76703 23993 ft 469 kts 113°
2026-05-09 06:48 25.75605 54.80109 23187 ft 467 kts 113°
2026-05-09 06:48 25.74529 54.83487 22422 ft 463 kts 113°
2026-05-09 06:48 25.73459 54.86837 21723 ft 457 kts 113°
2026-05-09 06:49 25.72405 54.90138 21045 ft 452 kts 112°
2026-05-09 06:49 25.71361 54.93404 20383 ft 447 kts 112°
2026-05-09 06:49 25.70326 54.96632 19750 ft 442 kts 112°
2026-05-09 06:49 25.69303 54.99827 19135 ft 437 kts 112°
2026-05-09 06:50 25.68269 55.02978 18546 ft 431 kts 115°
2026-05-09 06:50 25.66997 55.05944 17957 ft 424 kts 119°
2026-05-09 06:50 25.65705 55.08861 17383 ft 418 kts 118°
2026-05-09 06:50 25.64433 55.11729 16853 ft 412 kts 118°
2026-05-09 06:51 25.63175 55.14564 16337 ft 406 kts 118°
2026-05-09 06:51 25.61937 55.17352 15826 ft 402 kts 118°
2026-05-09 06:51 25.60708 55.20117 15302 ft 398 kts 118°
2026-05-09 06:51 25.59507 55.22822 14790 ft 394 kts 118°
2026-05-09 06:52 25.58303 55.25536 14252 ft 391 kts 118°
2026-05-09 06:52 25.57492 55.27362 13895 ft 389 kts 118°
2026-05-09 06:52 25.56067 55.30570 13180 ft 387 kts 118°
2026-05-09 06:52 25.55096 55.33337 12603 ft 385 kts 108°
2026-05-09 06:53 25.54567 55.36243 12050 ft 383 kts 101°
2026-05-09 06:53 25.54162 55.39133 11557 ft 378 kts 101°
2026-05-09 06:53 25.53760 55.42002 10988 ft 376 kts 101°
2026-05-09 06:53 25.53366 55.44807 10838 ft 361 kts 101°
2026-05-09 06:54 25.52987 55.47496 10718 ft 346 kts 101°
2026-05-09 06:54 25.52738 55.49251 10637 ft 338 kts 101°
2026-05-09 06:54 25.52625 55.50048 10597 ft 334 kts 101°
2026-05-09 06:54 25.52297 55.52358 10490 ft 323 kts 101°
2026-05-09 06:55 25.51950 55.54780 10374 ft 313 kts 101°
2026-05-09 06:55 25.51613 55.57130 10159 ft 306 kts 101°
2026-05-09 06:55 25.51279 55.59446 10075 ft 305 kts 101°
2026-05-09 06:55 25.50943 55.61769 9869 ft 306 kts 101°
2026-05-09 06:56 25.50604 55.64114 9381 ft 309 kts 101°
2026-05-09 06:56 25.50263 55.66467 8838 ft 312 kts 101°
2026-05-09 06:56 25.49924 55.68814 8556 ft 307 kts 101°
2026-05-09 06:56 25.49588 55.71144 8155 ft 306 kts 100°
2026-05-09 06:57 25.49255 55.73463 7695 ft 304 kts 100°
2026-05-09 06:57 25.48917 55.75778 7103 ft 304 kts 102°
2026-05-09 06:57 25.48252 55.77976 6556 ft 301 kts 118°
2026-05-09 06:57 25.47092 55.79880 5983 ft 298 kts 131°
2026-05-09 06:58 25.45778 55.81658 5384 ft 298 kts 130°
2026-05-09 06:58 25.44477 55.83434 4853 ft 296 kts 130°
2026-05-09 06:58 25.43192 55.85191 4435 ft 289 kts 130°
2026-05-09 06:58 25.41957 55.86879 4378 ft 275 kts 130°
2026-05-09 06:59 25.40786 55.88480 4273 ft 262 kts 130°
2026-05-09 06:59 25.39760 55.90095 4164 ft 252 kts 114°
2026-05-09 06:59 25.39336 55.91936 4008 ft 248 kts 91°
2026-05-09 06:59 25.39568 55.93815 3620 ft 248 kts 72°
2026-05-09 07:00 25.40040 55.95657 3246 ft 249 kts 71°
2026-05-09 07:00 25.40543 55.97482 2887 ft 249 kts 62°
2026-05-09 07:00 25.41655 55.98870 2517 ft 238 kts 24°
2026-05-09 07:00 25.43180 55.99250 2333 ft 214 kts 351°
2026-05-09 07:01 25.44554 55.98916 2298 ft 194 kts 342°
2026-05-09 07:01 25.45832 55.98539 2257 ft 187 kts 342°
2026-05-09 07:01 25.47093 55.98160 2200 ft 188 kts 341°
2026-05-09 07:01 25.48355 55.97780 2102 ft 187 kts 341°
2026-05-09 07:02 25.49607 55.97405 2015 ft 185 kts 341°
2026-05-09 07:02 25.50800 55.97048 1851 ft 171 kts 341°
2026-05-09 07:02 25.51939 55.96707 1625 ft 169 kts 340°
2026-05-09 07:02 25.53072 55.96366 1428 ft 167 kts 341°
2026-05-09 07:03 25.54195 55.96029 1244 ft 166 kts 341°
2026-05-09 07:03 25.55291 55.95701 1040 ft 161 kts 340°
2026-05-09 07:03 25.56356 55.95381 822 ft 153 kts 343°
2026-05-09 07:03 25.57366 55.95077 642 ft 150 kts 343°
2026-05-09 07:04 25.58366 55.94777 431 ft 148 kts 340°
2026-05-09 07:04 25.59348 55.94483 264 ft 145 kts 342°
2026-05-09 07:04 25.60307 55.94186 125 ft 138 kts 345°
2026-05-09 07:04 25.61120 55.93945 114 ft 102 kts 344°
2026-05-09 07:05 25.61638 55.93785 113 ft 52 kts 345°
2026-05-09 07:05 25.61924 55.93700 112 ft 39 kts 345°
2026-05-09 07:05 25.62180 55.93624 111 ft 36 kts 345°
2026-05-09 07:05 25.62416 55.93555 113 ft 34 kts 345°
2026-05-09 07:06 25.62621 55.93494 115 ft 20 kts 344°
2026-05-09 07:06 25.62727 55.93467 115 ft 16 kts 355°
2026-05-09 07:06 25.62839 55.93496 115 ft 17 kts 19°
2026-05-09 07:06 25.62953 55.93526 112 ft 16 kts 343°
2026-05-09 07:07 25.62969 55.93425 113 ft 15 kts 238°
2026-05-09 07:07 25.62874 55.93418 115 ft 14 kts 164°
2026-05-09 07:07 25.62784 55.93446 114 ft 13 kts 165°
2026-05-09 07:07 25.62705 55.93469 115 ft 11 kts 165°
2026-05-09 07:08 25.62639 55.93489 113 ft 9 kts 165°
2026-05-09 07:08 25.62582 55.93507 114 ft 8 kts 164°
2026-05-09 07:08 25.62530 55.93523 115 ft 8 kts 164°
2026-05-09 07:08 25.62477 55.93540 114 ft 8 kts 163°
2026-05-09 07:09 25.62425 55.93555 113 ft 9 kts 167°
2026-05-09 07:09 25.62298 55.93592 112 ft 30 kts 164°
2026-05-09 07:09 25.62060 55.93661 111 ft 37 kts 164°
2026-05-09 07:09 25.61825 55.93735 112 ft 29 kts 164°
2026-05-09 07:10 25.61676 55.93780 112 ft 15 kts 162°
2026-05-09 07:10 25.61641 55.93857 113 ft 11 kts 77°
2026-05-09 07:10 25.61661 55.93933 113 ft 10 kts 76°
2026-05-09 07:10 25.61677 55.94000 113 ft 9 kts 77°
2026-05-09 07:11 25.61665 55.94057 113 ft 7 kts 128°
2026-05-09 07:11 25.61623 55.94078 113 ft 6 kts 165°
2026-05-09 07:11 25.61585 55.94090 113 ft 5 kts 164°
2026-05-09 07:11 25.61574 55.94111 113 ft 1 kts 90°
2026-05-09 07:12 25.61578 55.94130 113 ft 4 kts 79°
2026-05-09 07:12 25.61581 55.94150 113 ft 1 kts 77°
2026-05-09 07:12 25.61583 55.94156 113 ft 1 kts 77°
2026-05-09 07:12 25.61584 55.94164 113 ft 1 kts 77°
2026-05-09 07:13 25.61585 55.94166 113 ft 0 kts 77°